Time,TemperatureF,DewpointF,PressureIn,WindDirection,WindDirectionDegrees,WindSpeedMPH,WindSpeedGustMPH,Humidity,HourlyPrecipIn,Conditions,Clouds,dailyrainin,SoftwareType,DateUTC
2013-05-23 00:02:00,59.0,53.0,-100.00,WNW,300,14.0,21.0,81,0.00,,,-99.99,,2013-05-23 05:02:00,
2013-05-23 00:11:00,59.0,53.0,-100.00,NW,305,13.0,21.0,81,0.00,,,-99.99,,2013-05-23 05:11:00,
2013-05-23 00:22:00,58.0,53.0,-100.00,NW,310,14.0,21.0,82,0.00,,,-99.99,,2013-05-23 05:22:00,
2013-05-23 00:32:00,58.0,53.0,-100.00,WNW,300,13.0,19.0,84,0.00,,,-99.99,,2013-05-23 05:32:00,
2013-05-23 00:42:00,57.0,53.0,-100.00,NW,305,16.0,20.0,86,0.00,,,-99.99,,2013-05-23 05:42:00,
2013-05-23 00:52:00,57.0,53.0,-100.00,WNW,295,11.0,16.0,87,0.00,,,-99.99,,2013-05-23 05:52:00,
2013-05-23 01:02:00,57.0,53.0,-100.00,WNW,295,11.0,16.0,87,0.00,,,-99.99,,2013-05-23 06:02:00,
2013-05-23 01:12:00,57.0,53.0,-100.00,NW,305,12.0,15.0,88,0.00,,,-99.99,,2013-05-23 06:12:00,
2013-05-23 01:21:00,56.0,53.0,-100.00,WNW,300,12.0,17.0,88,0.00,,,-99.99,,2013-05-23 06:21:00,
2013-05-23 01:32:00,56.0,53.0,-100.00,NW,305,11.0,18.0,88,0.00,,,-99.99,,2013-05-23 06:32:00,
2013-05-23 01:41:00,56.0,53.0,-100.00,NW,305,11.0,18.0,88,0.00,,,-99.99,,2013-05-23 06:41:00,
2013-05-23 01:52:00,56.0,53.0,-100.00,NW,305,11.0,15.0,88,0.00,,,-99.99,,2013-05-23 06:52:00,
2013-05-23 02:02:00,56.0,53.0,-100.00,NW,310,11.0,16.0,88,0.00,,,-99.99,,2013-05-23 07:02:00,
2013-05-23 02:11:00,56.0,53.0,-100.00,NW,310,11.0,17.0,88,0.00,,,-99.99,,2013-05-23 07:11:00,
2013-05-23 02:21:00,56.0,53.0,-100.00,NW,310,10.0,14.0,88,0.00,,,-99.99,,2013-05-23 07:21:00,
2013-05-23 02:32:00,56.0,53.0,-100.00,NW,315,7.0,14.0,88,0.00,,,-99.99,,2013-05-23 07:32:00,
2013-05-23 02:42:00,56.0,53.0,-100.00,NW,315,7.0,14.0,88,0.00,,,-99.99,,2013-05-23 07:42:00,
2013-05-23 02:59:00,56.0,53.0,-100.00,NW,315,9.0,13.0,88,0.00,,,-99.99,,2013-05-23 07:59:00,
2013-05-23 03:11:00,56.0,53.0,-100.00,NW,310,7.0,12.0,88,0.00,,,-99.99,,2013-05-23 08:11:00,
2013-05-23 03:21:00,56.0,53.0,-100.00,NW,310,7.0,12.0,88,0.00,,,-99.99,,2013-05-23 08:21:00,
2013-05-23 03:31:00,57.0,53.0,-100.00,WNW,300,9.0,12.0,88,0.00,,,-99.99,,2013-05-23 08:31:00,
2013-05-23 03:42:00,57.0,53.0,-100.00,WNW,300,9.0,12.0,88,0.00,,,-99.99,,2013-05-23 08:42:00,
2013-05-23 03:51:00,57.0,53.0,-100.00,NW,305,9.0,12.0,88,0.00,,,-99.99,,2013-05-23 08:51:00,
2013-05-23 04:01:00,57.0,53.0,-100.00,NW,310,9.0,14.0,88,0.00,,,-99.99,,2013-05-23 09:01:00,
2013-05-23 04:11:00,57.0,53.0,-100.00,NW,310,9.0,14.0,88,0.00,,,-99.99,,2013-05-23 09:11:00,
2013-05-23 04:21:00,57.0,54.0,-100.00,WNW,300,6.0,12.0,88,0.00,,,-99.99,,2013-05-23 09:21:00,
2013-05-23 04:33:00,57.0,54.0,-100.00,NW,310,6.0,12.0,88,0.00,,,-99.99,,2013-05-23 09:33:00,
2013-05-23 04:42:00,57.0,54.0,-100.00,NW,310,6.0,10.0,88,0.00,,,-99.99,,2013-05-23 09:42:00,
2013-05-23 04:53:00,57.0,54.0,-100.00,NW,310,6.0,8.0,88,0.00,,,-99.99,,2013-05-23 09:53:00,
2013-05-23 05:02:00,57.0,54.0,-100.00,NW,310,6.0,8.0,88,0.00,,,-99.99,,2013-05-23 10:02:00,
2013-05-23 05:12:00,58.0,54.0,-100.00,North,350,4.0,9.0,88,0.00,,,-99.99,,2013-05-23 10:12:00,
2013-05-23 05:22:00,57.0,53.0,-100.00,NE,55,16.0,22.0,88,0.28,,,-99.99,,2013-05-23 10:22:00,
2013-05-23 05:32:00,56.0,52.0,-100.00,ENE,70,21.0,28.0,88,0.14,,,-99.99,,2013-05-23 10:32:00,
2013-05-23 05:42:00,56.0,52.0,-100.00,ENE,70,21.0,28.0,88,0.14,,,-99.99,,2013-05-23 10:42:00,
2013-05-23 05:52:00,55.0,52.0,-100.00,ENE,70,20.0,24.0,88,0.21,,,-99.99,,2013-05-23 10:52:00,
2013-05-23 06:02:00,55.0,52.0,-100.00,ENE,60,13.0,19.0,88,0.11,,,-99.99,,2013-05-23 11:02:00,
2013-05-23 06:11:00,54.0,51.0,-100.00,ENE,60,21.0,29.0,88,0.03,,,-99.99,,2013-05-23 11:11:00,
2013-05-23 06:22:00,54.0,51.0,-100.00,ENE,60,21.0,29.0,88,0.03,,,-99.99,,2013-05-23 11:22:00,
2013-05-23 06:32:00,55.0,51.0,-100.00,ENE,70,18.0,23.0,87,0.00,,,-99.99,,2013-05-23 11:32:00,
2013-05-23 06:42:00,55.0,51.0,-100.00,ENE,70,18.0,23.0,87,0.00,,,-99.99,,2013-05-23 11:42:00,
2013-05-23 06:52:00,55.0,51.0,-100.00,NE,55,13.0,21.0,87,0.28,,,-99.99,,2013-05-23 11:52:00,
2013-05-23 07:01:00,54.0,50.0,-100.00,NE,50,17.0,23.0,87,0.30,,,-99.99,,2013-05-23 12:01:00,
2013-05-23 07:11:00,54.0,50.0,-100.00,NE,50,17.0,23.0,87,0.30,,,-99.99,,2013-05-23 12:11:00,
2013-05-23 07:21:00,54.0,51.0,-100.00,ENE,60,16.0,20.0,87,0.37,,,-99.99,,2013-05-23 12:21:00,
2013-05-23 07:32:00,54.0,51.0,-100.00,NE,55,18.0,24.0,87,0.27,,,-99.99,,2013-05-23 12:32:00,
2013-05-23 07:42:00,54.0,51.0,-100.00,NE,55,15.0,21.0,88,0.00,,,-99.99,,2013-05-23 12:42:00,
2013-05-23 07:52:00,54.0,51.0,-100.00,NE,55,14.0,19.0,88,0.04,,,-99.99,,2013-05-23 12:52:00,
2013-05-23 08:01:00,54.0,51.0,-100.00,NE,55,14.0,19.0,88,0.04,,,-99.99,,2013-05-23 13:01:00,
2013-05-23 08:11:00,54.0,51.0,-100.00,NE,50,16.0,22.0,87,0.00,,,-99.99,,2013-05-23 13:11:00,
2013-05-23 08:22:00,55.0,51.0,-100.00,NE,55,13.0,17.0,87,0.00,,,-99.99,,2013-05-23 13:22:00,
2013-05-23 08:31:00,54.0,51.0,-100.00,NE,50,18.0,22.0,87,0.01,,,-99.99,,2013-05-23 13:31:00,
2013-05-23 08:42:00,54.0,50.0,-100.00,ENE,60,21.0,27.0,87,0.01,,,-99.99,,2013-05-23 13:42:00,
2013-05-23 08:52:00,54.0,51.0,-100.00,ENE,65,17.0,26.0,87,0.01,,,-99.99,,2013-05-23 13:52:00,
2013-05-23 09:01:00,54.0,51.0,-100.00,ENE,65,17.0,26.0,87,0.01,,,-99.99,,2013-05-23 14:01:00,
2013-05-23 09:11:00,55.0,51.0,-100.00,ENE,65,19.0,24.0,87,0.00,,,-99.99,,2013-05-23 14:11:00,
2013-05-23 09:21:00,55.0,51.0,-100.00,NE,55,15.0,22.0,85,0.00,,,-99.99,,2013-05-23 14:21:00,
2013-05-23 09:32:00,55.0,50.0,-100.00,ENE,60,17.0,26.0,83,0.00,,,-99.99,,2013-05-23 14:32:00,
2013-05-23 09:42:00,55.0,50.0,-100.00,ENE,60,17.0,26.0,83,0.00,,,-99.99,,2013-05-23 14:42:00,
2013-05-23 09:52:00,56.0,50.0,-100.00,ENE,70,17.0,22.0,80,0.00,,,-99.99,,2013-05-23 14:52:00,
2013-05-23 10:01:00,56.0,49.0,-100.00,ENE,70,19.0,27.0,78,0.00,,,-99.99,,2013-05-23 15:01:00,
2013-05-23 10:11:00,56.0,49.0,-100.00,ENE,60,17.0,22.0,75,0.00,,,-99.99,,2013-05-23 15:11:00,
2013-05-23 10:21:00,56.0,49.0,-100.00,ENE,65,17.0,22.0,75,0.00,,,-99.99,,2013-05-23 15:21:00,
2013-05-23 10:32:00,56.0,48.0,-100.00,ENE,60,20.0,26.0,75,0.00,,,-99.99,,2013-05-23 15:32:00,
2013-05-23 10:42:00,56.0,48.0,-100.00,ENE,60,20.0,26.0,75,0.00,,,-99.99,,2013-05-23 15:42:00,
2013-05-23 10:53:00,57.0,49.0,-100.00,ENE,70,19.0,24.0,73,0.00,,,-99.99,,2013-05-23 15:53:00,
2013-05-23 11:03:00,58.0,48.0,-100.00,ENE,65,15.0,24.0,70,0.00,,,-99.99,,2013-05-23 16:03:00,
2013-05-23 11:12:00,58.0,47.0,-100.00,ENE,65,18.0,23.0,67,0.00,,,-99.99,,2013-05-23 16:12:00,
2013-05-23 11:23:00,58.0,47.0,-100.00,ENE,65,18.0,23.0,67,0.00,,,-99.99,,2013-05-23 16:23:00,
2013-05-23 11:33:00,59.0,47.0,-100.00,ENE,65,16.0,24.0,64,0.00,,,-99.99,,2013-05-23 16:33:00,
2013-05-23 11:42:00,58.0,47.0,-100.00,ENE,70,14.0,21.0,66,0.00,,,-99.99,,2013-05-23 16:42:00,
2013-05-23 11:52:00,60.0,47.0,-100.00,ENE,65,16.0,21.0,63,0.00,,,-99.99,,2013-05-23 16:52:00,
2013-05-23 12:03:00,60.0,47.0,-100.00,ENE,65,16.0,21.0,63,0.00,,,-99.99,,2013-05-23 17:03:00,
2013-05-23 12:11:00,60.0,48.0,-100.00,NE,45,12.0,22.0,63,0.00,,,-99.99,,2013-05-23 17:11:00,
2013-05-23 12:22:00,60.0,47.0,-100.00,ENE,70,18.0,21.0,62,0.00,,,-99.99,,2013-05-23 17:22:00,
2013-05-23 12:33:00,60.0,47.0,-100.00,ENE,65,16.0,22.0,60,0.00,,,-99.99,,2013-05-23 17:33:00,
2013-05-23 12:43:00,60.0,47.0,-100.00,ENE,65,16.0,22.0,60,0.00,,,-99.99,,2013-05-23 17:43:00,
2013-05-23 12:52:00,61.0,47.0,-100.00,ENE,60,15.0,22.0,59,0.00,,,-99.99,,2013-05-23 17:52:00,
2013-05-23 13:01:00,61.0,47.0,-100.00,ENE,60,15.0,22.0,59,0.00,,,-99.99,,2013-05-23 18:01:00,
2013-05-23 13:11:00,61.0,46.0,-100.00,NE,50,15.0,21.0,56,0.00,,,-99.99,,2013-05-23 18:11:00,
2013-05-23 13:22:00,62.0,47.0,-100.00,NE,40,16.0,24.0,57,0.00,,,-99.99,,2013-05-23 18:22:00,
2013-05-23 13:32:00,62.0,46.0,-100.00,ENE,60,16.0,24.0,55,0.00,,,-99.99,,2013-05-23 18:32:00,
2013-05-23 13:42:00,62.0,46.0,-100.00,ENE,60,16.0,24.0,55,0.00,,,-99.99,,2013-05-23 18:42:00,
2013-05-23 13:52:00,63.0,45.0,-100.00,NE,55,12.0,22.0,52,0.00,,,-99.99,,2013-05-23 18:52:00,
2013-05-23 14:01:00,63.0,45.0,-100.00,ENE,60,12.0,22.0,52,0.00,,,-99.99,,2013-05-23 19:01:00,
2013-05-23 14:11:00,63.0,45.0,-100.00,ENE,60,12.0,22.0,52,0.00,,,-99.99,,2013-05-23 19:11:00,
2013-05-23 14:21:00,62.0,45.0,-100.00,ENE,60,10.0,19.0,53,0.00,,,-99.99,,2013-05-23 19:21:00,
2013-05-23 14:32:00,62.0,44.0,-100.00,NE,50,14.0,22.0,51,0.00,,,-99.99,,2013-05-23 19:32:00,
2013-05-23 14:42:00,63.0,43.0,-100.00,ENE,75,12.0,21.0,48,0.00,,,-99.99,,2013-05-23 19:42:00,
2013-05-23 14:52:00,63.0,43.0,-100.00,East,80,11.0,17.0,47,0.00,,,-99.99,,2013-05-23 19:52:00,
2013-05-23 15:02:00,63.0,43.0,-100.00,East,80,11.0,17.0,47,0.00,,,-99.99,,2013-05-23 20:02:00,
2013-05-23 15:11:00,64.0,43.0,-100.00,ENE,65,12.0,23.0,47,0.00,,,-99.99,,2013-05-23 20:11:00,
2013-05-23 15:21:00,64.0,42.0,-100.00,ENE,75,10.0,20.0,45,0.00,,,-99.99,,2013-05-23 20:21:00,
2013-05-23 15:32:00,64.0,43.0,-100.00,NE,55,11.0,16.0,45,0.00,,,-99.99,,2013-05-23 20:32:00,
2013-05-23 15:42:00,64.0,42.0,-100.00,ENE,75,12.0,17.0,44,0.00,,,-99.99,,2013-05-23 20:42:00,
2013-05-23 15:51:00,64.0,41.0,-100.00,East,80,9.0,16.0,42,0.00,,,-99.99,,2013-05-23 20:51:00,
2013-05-23 16:01:00,64.0,41.0,-100.00,East,80,9.0,16.0,42,0.00,,,-99.99,,2013-05-23 21:01:00,
2013-05-23 16:11:00,65.0,40.0,-100.00,ENE,65,11.0,17.0,39,0.00,,,-99.99,,2013-05-23 21:11:00,
2013-05-23 16:21:00,66.0,39.0,-100.00,ENE,65,16.0,24.0,38,0.00,,,-99.99,,2013-05-23 21:21:00,
2013-05-23 16:32:00,65.0,40.0,-100.00,NE,40,9.0,20.0,39,0.00,,,-99.99,,2013-05-23 21:32:00,
2013-05-23 16:43:00,65.0,40.0,-100.00,NE,40,9.0,20.0,39,0.00,,,-99.99,,2013-05-23 21:43:00,
2013-05-23 16:53:00,66.0,41.0,-100.00,ENE,65,12.0,17.0,40,0.00,,,-99.99,,2013-05-23 21:53:00,
2013-05-23 17:03:00,66.0,39.0,-100.00,ENE,65,15.0,18.0,37,0.00,,,-99.99,,2013-05-23 22:03:00,
2013-05-23 17:12:00,66.0,38.0,-100.00,ENE,70,13.0,18.0,36,0.00,,,-99.99,,2013-05-23 22:12:00,
2013-05-23 17:22:00,66.0,38.0,-100.00,ENE,70,13.0,18.0,36,0.00,,,-99.99,,2013-05-23 22:22:00,
2013-05-23 17:33:00,67.0,39.0,-100.00,NE,55,11.0,20.0,35,0.00,,,-99.99,,2013-05-23 22:33:00,
2013-05-23 17:42:00,67.0,39.0,-100.00,NE,55,11.0,20.0,35,0.00,,,-99.99,,2013-05-23 22:42:00,
2013-05-23 17:52:00,66.0,37.0,-100.00,East,80,9.0,19.0,34,0.00,,,-99.99,,2013-05-23 22:52:00,
2013-05-23 18:01:00,66.0,37.0,-100.00,East,80,9.0,19.0,34,0.00,,,-99.99,,2013-05-23 23:01:00,
2013-05-23 18:11:00,66.0,37.0,-100.00,NE,50,11.0,17.0,34,0.00,,,-99.99,,2013-05-23 23:11:00,
2013-05-23 18:21:00,66.0,37.0,-100.00,ENE,60,13.0,21.0,34,0.00,,,-99.99,,2013-05-23 23:21:00,
2013-05-23 18:32:00,65.0,37.0,-100.00,ENE,70,9.0,16.0,35,0.00,,,-99.99,,2013-05-23 23:32:00,
2013-05-23 18:42:00,66.0,37.0,-100.00,NE,55,9.0,14.0,35,0.00,,,-99.99,,2013-05-23 23:42:00,
2013-05-23 18:52:00,65.0,37.0,-100.00,ENE,65,11.0,15.0,35,0.00,,,-99.99,,2013-05-23 23:52:00,
2013-05-23 19:01:00,65.0,37.0,-100.00,ENE,65,11.0,15.0,35,0.00,,,-99.99,,2013-05-24 00:01:00,
2013-05-23 19:12:00,65.0,37.0,-100.00,ENE,65,14.0,18.0,35,0.00,,,-99.99,,2013-05-24 00:12:00,
2013-05-23 19:21:00,65.0,37.0,-100.00,ENE,75,10.0,16.0,35,0.00,,,-99.99,,2013-05-24 00:21:00,
2013-05-23 19:32:00,64.0,38.0,-100.00,East,100,9.0,17.0,36,0.00,,,-99.99,,2013-05-24 00:32:00,
2013-05-23 19:42:00,64.0,38.0,-100.00,East,100,9.0,17.0,36,0.00,,,-99.99,,2013-05-24 00:42:00,
2013-05-23 19:52:00,63.0,38.0,-100.00,ENE,70,11.0,17.0,38,0.00,,,-99.99,,2013-05-24 00:52:00,
2013-05-23 20:01:00,63.0,38.0,-100.00,ENE,70,9.0,15.0,38,0.00,,,-99.99,,2013-05-24 01:01:00,
2013-05-23 20:12:00,63.0,38.0,-100.00,ENE,65,9.0,12.0,40,0.00,,,-99.99,,2013-05-24 01:12:00,
2013-05-23 20:22:00,63.0,38.0,-100.00,ENE,65,9.0,12.0,40,0.00,,,-99.99,,2013-05-24 01:22:00,
2013-05-23 20:32:00,61.0,39.0,-100.00,ENE,70,6.0,9.0,44,0.00,,,-99.99,,2013-05-24 01:32:00,
2013-05-23 20:42:00,61.0,39.0,-100.00,ENE,70,6.0,9.0,44,0.00,,,-99.99,,2013-05-24 01:42:00,
2013-05-23 20:52:00,60.0,40.0,-100.00,ENE,70,6.0,7.0,47,0.00,,,-99.99,,2013-05-24 01:52:00,
2013-05-23 21:01:00,59.0,40.0,-100.00,East,80,6.0,8.0,48,0.00,,,-99.99,,2013-05-24 02:01:00,
2013-05-23 21:11:00,59.0,40.0,-100.00,East,80,6.0,8.0,48,0.00,,,-99.99,,2013-05-24 02:11:00,
2013-05-23 21:21:00,59.0,40.0,-100.00,ENE,75,6.0,7.0,49,0.00,,,-99.99,,2013-05-24 02:21:00,
2013-05-23 21:32:00,58.0,40.0,-100.00,ENE,75,5.0,7.0,51,0.00,,,-99.99,,2013-05-24 02:32:00,
2013-05-23 21:42:00,57.0,40.0,-100.00,ENE,75,6.0,9.0,51,0.00,,,-99.99,,2013-05-24 02:42:00,
2013-05-23 21:52:00,57.0,39.0,-100.00,ENE,75,6.0,7.0,52,0.00,,,-99.99,,2013-05-24 02:52:00,
2013-05-23 22:02:00,57.0,39.0,-100.00,ENE,75,6.0,7.0,52,0.00,,,-99.99,,2013-05-24 03:02:00,
2013-05-23 22:11:00,56.0,39.0,-100.00,East,90,6.0,7.0,52,0.00,,,-99.99,,2013-05-24 03:11:00,
2013-05-23 22:21:00,56.0,39.0,-100.00,East,95,6.0,9.0,52,0.00,,,-99.99,,2013-05-24 03:21:00,
2013-05-23 22:33:00,56.0,38.0,-100.00,East,95,6.0,9.0,51,0.00,,,-99.99,,2013-05-24 03:33:00,
2013-05-23 22:42:00,55.0,38.0,-100.00,NE,50,3.0,9.0,53,0.00,,,-99.99,,2013-05-24 03:42:00,
2013-05-23 22:53:00,54.0,39.0,-100.00,East,90,4.0,6.0,57,0.00,,,-99.99,,2013-05-24 03:53:00,
2013-05-23 23:03:00,54.0,39.0,-100.00,East,90,4.0,6.0,57,0.00,,,-99.99,,2013-05-24 04:03:00,
2013-05-23 23:12:00,54.0,39.0,-100.00,East,85,5.0,6.0,57,0.00,,,-99.99,,2013-05-24 04:12:00,
2013-05-23 23:22:00,53.0,39.0,-100.00,East,85,4.0,6.0,57,0.00,,,-99.99,,2013-05-24 04:22:00,
2013-05-23 23:33:00,52.0,39.0,-100.00,ENE,75,2.0,4.0,60,0.00,,,-99.99,,2013-05-24 04:33:00,
2013-05-23 23:42:00,52.0,39.0,-100.00,ENE,75,2.0,4.0,60,0.00,,,-99.99,,2013-05-24 04:42:00,
2013-05-23 23:52:00,52.0,39.0,-100.00,East,85,4.0,6.0,60,0.00,,,-99.99,,2013-05-24 04:52:00,